When you browse on this site, cookies collect data to enhance your experience and personalize the content and advertising you see.
Visit our Privacy Policy to learn more. By continuing to use the site, you agree to this use of cookies and data.
  • în România
  • Lista ţărilor
  • Pe 7 zile
  • Temperatura apei
  • Meteo pe hartă
  • Widget-uri
  • user-avatar
    Intrare

    Meteo pe oră la Buzău

    Astăzi, 26 Februarie, Miercuri

    Timp Temperatura Precipitaţii Vânt Presiune Umiditate
    00:00 +8°C° 0 mm 3 m/s 746 mmHg 51%
    01:00 +8°C° 0 mm 3 m/s 745 mmHg 52%
    02:00 +8°C° 0 mm 3 m/s 745 mmHg 53%
    03:00 +8°C° 0 mm 3 m/s 744 mmHg 54%
    04:00 +8°C° 0 mm 3 m/s 744 mmHg 56%
    05:00 +8°C° 0 mm 3 m/s 743 mmHg 57%
    06:00 +8°C° 0 mm 3 m/s 743 mmHg 58%
    07:00 +7°C° 0 mm 4 m/s 743 mmHg 58%
    08:00 +7°C° 0 mm 4 m/s 743 mmHg 59%
    09:00 +10°C° 0 mm 4 m/s 743 mmHg 54%
    10:00 +11°C° 0 mm 4 m/s 742 mmHg 50%
    11:00 +13°C° 0 mm 4 m/s 742 mmHg 46%
    12:00 +15°C° 0 mm 5 m/s 742 mmHg 44%
    13:00 +16°C° 0 mm 6 m/s 741 mmHg 41%
    14:00 +18°C° 0 mm 8 m/s 741 mmHg 39%
    15:00 +17°C° 0 mm 7 m/s 740 mmHg 40%
    16:00 +17°C° 0 mm 6 m/s 740 mmHg 42%
    17:00 +16°C° 0 mm 5 m/s 740 mmHg 43%
    18:00 +15°C° 0 mm 4 m/s 740 mmHg 49%
    19:00 +14°C° 0 mm 4 m/s 740 mmHg 55%
    20:00 +12°C° 0 mm 3 m/s 740 mmHg 61%
    21:00 +12°C° 0 mm 3 m/s 740 mmHg 64%
    22:00 +12°C° 0 mm 2 m/s 740 mmHg 67%
    23:00 +12°C° 0 mm 1 m/s 739 mmHg 70%

    Mâine, 27 Februarie, Joi

    Timp Temperatura Precipitaţii Vânt Presiune Umiditate
    00:00 +11°C° 0 mm 1 m/s 739 mmHg 72%
    01:00 +10°C° 0 mm 2 m/s 739 mmHg 73%
    02:00 +10°C° 0 mm 2 m/s 739 mmHg 75%
    03:00 +9°C° 0 mm 2 m/s 739 mmHg 76%
    04:00 +9°C° 0 mm 3 m/s 738 mmHg 77%
    05:00 +8°C° 0 mm 4 m/s 738 mmHg 79%
    06:00 +8°C° 0 mm 4 m/s 738 mmHg 76%
    07:00 +8°C° 0 mm 4 m/s 739 mmHg 73%
    08:00 +8°C° 0 mm 5 m/s 739 mmHg 70%
    09:00 +10°C° 0 mm 5 m/s 739 mmHg 61%
    10:00 +13°C° 0 mm 5 m/s 739 mmHg 51%
    11:00 +15°C° 0 mm 6 m/s 740 mmHg 41%
    12:00 +13°C° 0.2 mm 6 m/s 740 mmHg 49%
    13:00 +11°C° 0.2 mm 6 m/s 740 mmHg 56%
    14:00 +10°C° 0.2 mm 6 m/s 740 mmHg 64%
    15:00 +8°C° 1.9 mm 5 m/s 741 mmHg 71%
    16:00 +6°C° 1.9 mm 5 m/s 741 mmHg 77%
    17:00 +4°C° 1.9 mm 4 m/s 741 mmHg 84%
    18:00 +4°C° 1.1 mm 4 m/s 742 mmHg 82%
    19:00 +4°C° 1.1 mm 4 m/s 743 mmHg 80%
    20:00 +3°C° 1.1 mm 5 m/s 744 mmHg 78%
    21:00 +4°C° 0.1 mm 4 m/s 745 mmHg 78%
    22:00 +4°C° 0.1 mm 4 m/s 745 mmHg 77%
    23:00 +4°C° 0.1 mm 3 m/s 746 mmHg 77%

    Poimâine, 28 Februarie, Vineri

    Timp Temperatura Precipitaţii Vânt Presiune Umiditate
    00:00 +3°C° 0 mm 3 m/s 747 mmHg 76%
    01:00 +3°C° 0 mm 3 m/s 747 mmHg 75%
    02:00 +3°C° 0 mm 3 m/s 748 mmHg 75%
    03:00 +3°C° 0 mm 2 m/s 748 mmHg 75%
    04:00 +3°C° 0 mm 2 m/s 748 mmHg 76%
    05:00 +3°C° 0 mm 2 m/s 748 mmHg 76%
    06:00 +3°C° 0 mm 2 m/s 748 mmHg 75%
    07:00 +2°C° 0 mm 3 m/s 748 mmHg 74%
    08:00 +2°C° 0 mm 3 m/s 748 mmHg 72%
    09:00 +3°C° 0 mm 4 m/s 748 mmHg 65%
    10:00 +5°C° 0 mm 5 m/s 748 mmHg 58%
    11:00 +5°C° 0 mm 6 m/s 748 mmHg 51%
    12:00 +6°C° 0 mm 7 m/s 747 mmHg 47%
    13:00 +8°C° 0 mm 7 m/s 747 mmHg 44%
    14:00 +9°C° 0 mm 8 m/s 747 mmHg 40%
    15:00 +7°C° 0 mm 8 m/s 747 mmHg 46%
    16:00 +7°C° 0 mm 8 m/s 747 mmHg 52%
    17:00 +6°C° 0 mm 8 m/s 747 mmHg 57%
    18:00 +5°C° 0 mm 7 m/s 747 mmHg 61%
    19:00 +4°C° 0 mm 6 m/s 747 mmHg 65%
    20:00 +5°C° 0 mm 5 m/s 747 mmHg 69%
    21:00 +3°C° 0 mm 5 m/s 748 mmHg 68%
    22:00 +3°C° 0 mm 5 m/s 748 mmHg 67%
    23:00 +3°C° 0 mm 5 m/s 748 mmHg 66%

    29 Februarie, Sâmbătă

    Timp Temperatura Precipitaţii Vânt Presiune Umiditate
    00:00 +2°C° 0 mm 5 m/s 748 mmHg 64%
    01:00 +2°C° 0 mm 6 m/s 749 mmHg 62%
    02:00 +2°C° 0 mm 7 m/s 749 mmHg 60%
    03:00 +2°C° 0 mm 6 m/s 750 mmHg 60%
    04:00 +2°C° 0 mm 6 m/s 751 mmHg 60%
    05:00 +1°C° 0 mm 5 m/s 751 mmHg 59%
    06:00 +1°C° 0 mm 5 m/s 752 mmHg 59%
    07:00 +1°C° 0 mm 5 m/s 752 mmHg 59%
    08:00 +1°C° 0 mm 5 m/s 753 mmHg 58%
    09:00 +3°C° 0 mm 5 m/s 753 mmHg 52%
    10:00 +5°C° 0 mm 5 m/s 754 mmHg 45%
    11:00 +6°C° 0 mm 5 m/s 754 mmHg 39%
    12:00 +7°C° 0 mm 5 m/s 754 mmHg 37%
    13:00 +7°C° 0 mm 5 m/s 754 mmHg 36%
    14:00 +8°C° 0 mm 5 m/s 754 mmHg 35%
    15:00 +8°C° 0 mm 4 m/s 754 mmHg 36%
    16:00 +9°C° 0 mm 3 m/s 754 mmHg 36%
    17:00 +9°C° 0 mm 3 m/s 754 mmHg 37%
    18:00 +7°C° 0 mm 2 m/s 754 mmHg 41%
    19:00 +6°C° 0 mm 2 m/s 754 mmHg 45%
    20:00 +6°C° 0 mm 1 m/s 755 mmHg 49%
    21:00 +6°C° 0 mm 1 m/s 755 mmHg 50%
    22:00 +5°C° 0 mm 1 m/s 755 mmHg 51%
    23:00 +5°C° 0 mm 1 m/s 755 mmHg 52%

    1 Martie, Duminică

    Timp Temperatura Precipitaţii Vânt Presiune Umiditate
    00:00 +5°C° 0 mm 1 m/s 755 mmHg 54%
    01:00 +5°C° 0 mm 1 m/s 754 mmHg 56%
    02:00 +4°C° 0 mm 1 m/s 754 mmHg 57%
    03:00 +4°C° 0 mm 1 m/s 754 mmHg 58%
    04:00 +4°C° 0 mm 1 m/s 754 mmHg 59%
    05:00 +4°C° 0 mm 1 m/s 754 mmHg 59%
    06:00 +4°C° 0 mm 1 m/s 754 mmHg 59%
    07:00 +5°C° 0 mm 1 m/s 754 mmHg 58%
    08:00 +5°C° 0 mm 1 m/s 753 mmHg 58%
    09:00 +7°C° 0 mm 1 m/s 753 mmHg 51%
    10:00 +7°C° 0 mm 2 m/s 753 mmHg 45%
    11:00 +9°C° 0 mm 2 m/s 753 mmHg 39%
    12:00 +10°C° 0 mm 3 m/s 753 mmHg 36%
    13:00 +12°C° 0 mm 3 m/s 752 mmHg 32%
    14:00 +13°C° 0 mm 4 m/s 752 mmHg 29%
    15:00 +13°C° 0 mm 4 m/s 751 mmHg 31%
    16:00 +12°C° 0 mm 3 m/s 751 mmHg 33%
    17:00 +12°C° 0 mm 3 m/s 751 mmHg 35%
    18:00 +12°C° 0 mm 2 m/s 751 mmHg 39%
    19:00 +10°C° 0 mm 2 m/s 751 mmHg 42%
    20:00 +10°C° 0 mm 1 m/s 751 mmHg 45%
    21:00 +9°C° 0 mm 2 m/s 751 mmHg 50%
    22:00 +9°C° 0 mm 2 m/s 751 mmHg 54%
    23:00 +8°C° 0 mm 2 m/s 751 mmHg 59%

    2 Martie, Luni

    Timp Temperatura Precipitaţii Vânt Presiune Umiditate
    00:00 +8°C° 0 mm 2 m/s 750 mmHg 62%
    01:00 +8°C° 0 mm 2 m/s 750 mmHg 65%
    02:00 +8°C° 0 mm 2 m/s 749 mmHg 68%
    03:00 +8°C° 0 mm 2 m/s 749 mmHg 69%
    04:00 +8°C° 0 mm 2 m/s 749 mmHg 70%
    05:00 +7°C° 0 mm 2 m/s 748 mmHg 71%
    06:00 +8°C° 0 mm 2 m/s 748 mmHg 70%
    07:00 +8°C° 0 mm 2 m/s 748 mmHg 69%
    08:00 +8°C° 0 mm 2 m/s 748 mmHg 69%
    09:00 +9°C° 0 mm 3 m/s 747 mmHg 63%
    10:00 +10°C° 0 mm 4 m/s 747 mmHg 57%
    11:00 +12°C° 0 mm 4 m/s 747 mmHg 51%
    12:00 +12°C° 0 mm 5 m/s 747 mmHg 53%
    13:00 +11°C° 0 mm 6 m/s 747 mmHg 55%
    14:00 +13°C° 0 mm 6 m/s 746 mmHg 58%
    15:00 +13°C° 0 mm 6 m/s 746 mmHg 58%
    16:00 +13°C° 0 mm 5 m/s 746 mmHg 58%
    17:00 +14°C° 0 mm 4 m/s 747 mmHg 58%
    18:00 +12°C° 0 mm 4 m/s 747 mmHg 62%
    19:00 +11°C° 0 mm 3 m/s 747 mmHg 67%
    20:00 +10°C° 0 mm 2 m/s 748 mmHg 72%
    21:00 +10°C° 0 mm 2 m/s 748 mmHg 73%
    22:00 +9°C° 0 mm 2 m/s 748 mmHg 75%
    23:00 +8°C° 0 mm 2 m/s 749 mmHg 77%
    Arată mai mult